Location: Burgerwiesen
(48.6500°N, 15.6167°E)
Time: 07:39:12
(UTC+00:00)

Cosmos 2082 Rocket - Pass Details

Date: 09 April 2020
Orbit: 831 x 855 km, 71.0° (Epoch: 02 June)

Event Time Altitude Azimuth Distance (km) Brightness Sun altitude
Exits shadow 20:33:33 30° 67° (ENE) 1,473 3.3 -25.0°
Drops below altitude 10° 20:36:52 10° 41° (NE) 2,469 4.7 -25.4°
Sets 20:39:27 0° 34° (NE) 3,412 5.6 -25.6°
